KC8HAM Weather Reports


time (UTC)temp
C
wind
direction
speed
KPH
gust
KPH
rain 1hr
cm
rain 24hr
cm
rain mn
cm
humidity
%
barometer
mb
20260506231251 12 0 0.0 3.2 0.00 1.91 1.70 71 1011.8
20260506230751 12 310 1.6 3.2 0.00 1.91 1.70 70 1011.6
20260506230251 12 300 1.6 3.2 0.00 1.91 1.70 69 1011.8
20260506225751 12 300 1.6 4.8 0.00 1.91 1.70 69 1011.8
20260506225251 12 0 1.6 4.8 0.00 1.91 1.70 70 1011.7
20260506225012 12 326 1.6 4.8 0.00 1.91 1.70 69 1011.6
20260506223744 13 295 1.6 4.8 0.00 1.91 1.70 71 1011.6
20260506223244 13 322 1.6 6.4 0.00 1.91 1.70 70 1011.5
20260506222744 13 338 1.6 6.4 0.00 1.91 1.70 73 1011.4
20260506222240 13 0 1.6 4.8 0.00 1.91 1.70 72 1011.4
20260506221741 13 336 1.6 6.4 0.00 1.91 1.70 71 1011.5
20260506221502 13 0 3.2 6.4 0.00 1.91 1.70 72 1011.3
20260506220741 13 0 1.6 6.4 0.00 1.91 1.70 70 1011.3
20260506220241 13 251 3.2 6.4 0.00 1.91 1.70 71 1011.3
20260506215742 13 280 3.2 6.4 0.00 1.91 1.70 71 1011.2
20260506215239 13 312 3.2 6.4 0.00 1.91 1.70 73 1011.1
20260506214739 13 310 3.2 6.4 0.00 1.91 1.70 73 1011.2
20260506214459 13 289 1.6 6.4 0.00 1.91 1.70 73 1011.2
20260506213739 13 342 1.6 6.4 0.00 1.91 1.70 72 1011.3
20260506213238 13 273 1.6 6.4 0.00 1.91 1.70 74 1011.2
20260506212236 13 320 3.2 6.4 0.00 1.91 1.70 74 1011.1
20260506211736 13 8 3.2 6.4 0.00 1.91 1.70 74 1011.0
20260506211236 13 350 3.2 9.7 0.00 1.91 1.70 77 1011.0
20260506210736 13 325 3.2 11.3 0.00 1.91 1.70 74 1011.0
20260506210234 13 340 4.8 11.3 0.00 1.91 1.70 75 1010.8
20260506205733 13 263 4.8 11.3 0.00 1.91 1.70 74 1010.9
20260506205230 13 311 4.8 9.7 0.00 1.91 1.70 73 1010.6
20260506204731 13 268 3.2 9.7 0.00 1.91 1.70 77 1010.6
20260506204231 13 348 4.8 9.7 0.00 1.91 1.70 76 1010.5
20260506203731 13 341 4.8 9.7 0.00 1.91 1.70 77 1010.6
20260506203232 13 310 3.2 6.4 0.00 1.91 1.70 78 1010.6
20260506202732 13 316 3.2 9.7 0.00 1.91 1.70 77 1010.5
20260506202231 12 261 1.6 9.7 0.00 1.91 1.70 78 1010.6
20260506201731 12 129 1.6 4.8 0.00 1.91 1.70 79 1010.6
20260506201451 12 312 1.6 6.4 0.00 1.91 1.70 82 1010.6
20260506200731 12 14 3.2 6.4 0.00 1.91 1.70 81 1010.6
20260506200231 12 3 4.8 16.1 0.00 1.91 1.70 81 1010.6
20260506195731 12 269 4.8 16.1 0.00 1.91 1.70 82 1010.7
20260506195229 12 330 4.8 11.3 0.00 1.91 1.70 82 1010.6
20260506194729 12 347 4.8 11.3 0.00 1.91 1.70 82 1010.6
20260506194229 12 331 4.8 8.0 0.00 1.91 1.70 83 1010.6
20260506193729 12 290 4.8 9.7 0.00 1.91 1.70 83 1010.6
20260506193229 12 0 4.8 9.7 0.00 1.91 1.70 84 1010.5
20260506192729 12 308 4.8 9.7 0.00 1.91 1.70 84 1010.5
20260506192229 12 345 3.2 8.0 0.00 1.91 1.70 85 1010.6
20260506191730 12 355 3.2 9.7 0.00 1.91 1.70 85 1010.7
20260506191230 12 336 3.2 9.7 0.00 1.91 1.70 85 1010.7
20260506190727 12 335 3.2 11.3 0.00 1.91 1.70 84 1010.7
20260506185727 12 343 4.8 14.5 0.00 1.91 1.70 84 1010.9
20260506185446 12 320 4.8 11.3 0.00 1.91 1.70 84 1010.8
20260506184724 12 293 6.4 11.3 0.00 1.91 1.70 84 1010.7
20260506184224 12 258 6.4 9.7 0.00 1.91 1.70 84 1010.7
20260506183725 12 280 4.8 8.0 0.00 1.91 1.70 83 1010.7
20260506183225 12 219 3.2 8.0 0.00 1.91 1.70 84 1010.6
20260506182450 11 349 4.8 11.3 0.00 1.91 1.70 86 1010.6
20260506181721 11 228 4.8 11.3 0.00 1.91 1.70 88 1010.8
20260506181449 11 290 4.8 12.9 0.00 1.91 1.70 88 1010.8
20260506180718 11 288 4.8 12.9 0.00 1.91 1.70 89 1010.8
20260506180219 11 282 4.8 9.7 0.00 1.91 1.70 88 1010.8
20260506175940 11 262 4.8 8.0 0.00 1.91 1.70 88 1010.8
20260506175219 11 330 3.2 9.7 0.00 1.91 1.70 89 1010.8
20260506174719 11 314 3.2 9.7 0.00 1.91 1.70 89 1010.7
20260506174219 11 323 4.8 11.3 0.03 1.91 1.70 90 1010.8
20260506173719 11 327 4.8 11.3 0.03 1.91 1.70 88 1010.6
20260506173220 11 163 3.2 8.0 0.03 1.91 1.70 89 1010.5
20260506172719 11 0 4.8 9.7 0.03 1.91 1.70 89 1010.4
20260506172219 11 269 4.8 9.7 0.03 1.91 1.70 88 1010.5
20260506171717 11 353 4.8 9.7 0.03 1.91 1.70 89 1010.6
20260506171217 12 263 4.8 9.7 0.03 1.91 1.70 88 1010.4
20260506170717 11 349 4.8 12.9 0.03 1.91 1.70 89 1010.5
20260506170217 11 228 4.8 12.9 0.03 1.91 1.70 92 1010.5
20260506165717 11 284 4.8 12.9 0.03 1.91 1.70 93 1010.5
20260506165439 11 336 4.8 12.9 0.03 1.91 1.70 91 1010.6
20260506164717 11 282 4.8 9.7 0.03 1.91 1.70 93 1010.6
20260506164217 10 322 4.8 12.9 0.00 1.88 1.68 93 1010.6
20260506163717 10 310 4.8 12.9 0.00 1.88 1.68 96 1010.7
20260506163218 10 305 4.8 11.3 0.00 1.88 1.68 96 1010.7
20260506162715 10 315 4.8 12.9 0.00 1.88 1.68 96 1010.6
20260506162214 10 293 4.8 12.9 0.00 1.88 1.68 97 1010.5
20260506161936 10 300 6.4 12.9 0.00 1.88 1.68 97 1010.6
20260506161215 9 289 6.4 12.9 0.00 1.88 1.68 97 1010.5
20260506160715 9 293 6.4 12.9 0.00 1.88 1.68 98 1010.4
20260506160215 9 311 6.4 12.9 0.00 1.88 1.68 98 1010.3
20260506155715 9 323 6.4 11.3 0.00 1.88 1.68 99 1010.4
20260506155216 10 314 6.4 11.3 0.00 1.88 1.68 98 1010.2
20260506154716 10 306 4.8 11.3 0.00 1.88 1.68 98 1010.0
20260506154216 10 307 6.4 12.9 0.00 1.91 1.68 98 1009.8
20260506153715 10 356 4.8 12.9 0.00 1.91 1.68 98 1009.7
20260506153442 10 324 4.8 9.7 0.00 1.91 1.68 98 1009.4
20260506152715 10 352 3.2 8.0 0.00 1.91 1.68 98 1009.5
20260506152215 10 336 3.2 8.0 0.00 1.91 1.68 99 1009.4
20260506151714 9 90 3.2 9.7 0.00 1.91 1.68 99 1009.3
20260506151438 9 341 4.8 9.7 0.00 1.91 1.68 99 1009.2
20260506150716 9 322 3.2 8.0 0.00 1.91 1.68 99 1009.2
20260506150215 9 16 4.8 12.9 0.00 1.91 1.68 99 1009.1
20260506145705 9 326 4.8 12.9 0.00 1.91 1.68 99 1009.1
20260506145202 9 199 3.2 4.8 0.00 1.91 1.68 99 1009.0
20260506144647 9 32 3.2 6.4 0.00 1.91 1.68 100 1009.0
20260506144147 9 21 3.2 6.4 0.00 1.91 1.68 100 1009.0
20260506143648 9 314 3.2 6.4 0.00 1.91 1.68 100 1008.9
20260506143148 9 299 3.2 9.7 0.00 1.91 1.68 99 1008.8
20260506142648 8 19 3.2 9.7 0.00 1.91 1.68 100 1008.7
20260506142147 8 23 4.8 9.7 0.00 1.91 1.68 99 1008.7
20260506141648 8 333 4.8 9.7 0.00 1.91 1.68 99 1008.5
20260506141401 8 263 4.8 9.7 0.00 1.91 1.68 99 1008.4
20260506140630 8 315 6.4 9.7 0.00 1.91 1.68 99 1008.3
20260506140129 8 282 6.4 11.3 0.00 1.91 1.68 100 1008.3
20260506135629 8 330 6.4 14.5 0.00 1.91 1.68 100 1008.3
20260506135130 8 341 8.0 17.7 0.00 1.91 1.68 100 1008.3
20260506134629 8 291 8.0 17.7 0.00 1.91 1.68 100 1008.2
20260506133630 9 324 6.4 17.7 0.00 1.91 1.68 99 1007.9
20260506133129 9 334 8.0 17.7 0.00 1.91 1.68 99 1008.0
20260506132854 9 0 8.0 17.7 0.00 1.91 1.68 99 1008.1
20260506132130 9 319 9.7 17.7 0.00 1.91 1.68 99 1007.9
20260506131629 10 331 6.4 12.9 0.00 1.91 1.68 99 1007.5
20260506131123 10 337 6.4 14.5 0.00 1.91 1.68 99 1007.2
20260506130624 10 321 6.4 14.5 0.00 1.91 1.68 99 1007.2
20260506130124 10 318 6.4 12.9 0.00 1.91 1.68 99 1007.2
20260506125624 10 298 6.4 11.3 0.00 1.91 1.68 99 1007.0
20260506125125 11 309 6.4 12.9 0.03 1.91 1.68 99 1006.9
20260506124624 11 262 6.4 12.9 0.03 1.91 1.68 99 1006.9
20260506124118 12 302 6.4 9.7 0.03 1.91 1.68 99 1006.7
20260506123617 13 303 4.8 9.7 0.05 1.91 1.68 99 1006.5
20260506123112 13 290 6.4 11.3 0.10 1.91 1.68 99 1006.4
20260506122613 13 258 6.4 11.3 0.10 1.91 1.68 99 1006.4
20260506122112 13 240 6.4 11.3 0.10 1.91 1.65 99 1006.4
20260506121613 13 223 6.4 12.9 0.10 1.91 1.65 99 1006.5
20260506121107 13 245 6.4 12.9 0.10 1.91 1.65 99 1006.5
20260506120826 13 205 4.8 11.3 0.10 1.91 1.65 99 1006.4
20260506120104 13 135 4.8 8.0 0.10 1.91 1.65 99 1006.5
20260506115816 13 203 6.4 11.3 0.10 1.91 1.65 99 1006.5
20260506115049 13 207 6.4 12.9 0.10 1.91 1.65 99 1006.5
20260506114549 13 246 6.4 12.9 0.10 1.91 1.65 99 1006.5
20260506114049 13 162 6.4 11.3 0.08 1.91 1.65 99 1006.3
20260506113813 13 200 6.4 11.3 0.05 1.85 1.60 99 1006.3
20260506113313 13 233 6.4 11.3 0.03 1.83 1.57 99 1006.3
20260506112549 13 267 6.4 9.7 0.00 1.83 1.55 99 1006.4
20260506112050 13 222 6.4 11.3 0.00 1.83 1.55 99 1006.3
20260506111550 13 241 6.4 11.3 0.00 1.83 1.55 99 1006.2
20260506111049 13 198 6.4 11.3 0.00 1.83 1.55 99 1006.2
20260506110544 13 222 6.4 12.9 0.00 1.83 1.55 99 1006.0
20260506110044 13 205 6.4 12.9 0.00 1.83 1.55 99 1006.0
20260506105538 13 259 8.0 12.9 0.03 1.83 1.55 99 1005.8
20260506105038 13 232 8.0 14.5 0.08 1.83 1.55 99 1005.8
20260506104538 13 218 8.0 14.5 0.10 1.83 1.55 99 1005.9
20260506104038 13 219 8.0 14.5 0.10 1.83 1.55 99 1005.7
20260506103539 13 225 6.4 17.7 0.10 1.83 1.55 99 1005.7
20260506103038 13 169 6.4 17.7 0.13 1.83 1.55 99 1005.6
20260506102538 13 220 8.0 17.7 0.13 1.83 1.55 99 1005.6
20260506101533 13 220 8.0 14.5 0.18 1.83 1.55 99 1005.9
20260506101032 13 225 8.0 14.5 0.18 1.83 1.55 99 1006.0
20260506100533 13 160 8.0 14.5 0.18 1.80 1.55 99 1006.0
20260506100033 13 205 6.4 14.5 0.20 1.80 1.55 99 1006.0
20260506095534 13 218 6.4 17.7 0.20 1.78 1.52 99 1006.0
20260506095033 13 209 8.0 17.7 0.18 1.75 1.50 99 1006.1
20260506094533 13 208 8.0 14.5 0.15 1.73 1.47 99 1006.1
20260506094033 13 200 8.0 14.5 0.15 1.73 1.45 99 1006.0
20260506093800 12 209 6.4 12.9 0.13 1.70 1.45 99 1006.1
20260506093034 12 220 6.4 14.5 0.15 1.70 1.45 99 1006.1
20260506092533 12 243 6.4 14.5 0.15 1.70 1.42 99 1006.1
20260506092034 12 143 6.4 16.1 0.15 1.68 1.42 99 1006.1
20260506091534 12 205 6.4 16.1 0.15 1.65 1.40 99 1006.1
20260506091028 12 190 8.0 14.5 0.18 1.63 1.37 99 1006.1
20260506090749 13 196 6.4 14.5 0.20 1.63 1.37 99 1006.0
20260506090028 13 167 6.4 12.9 0.23 1.60 1.35 99 1006.0
20260506085754 13 188 6.4 12.9 0.25 1.60 1.32 99 1006.1
20260506085028 13 203 6.4 16.1 0.33 1.57 1.32 100 1006.2
20260506084748 13 212 6.4 16.1 0.41 1.57 1.32 100 1006.2
20260506084028 13 202 6.4 9.7 0.43 1.60 1.32 100 1006.2
20260506083529 13 231 6.4 9.7 0.46 1.60 1.32 99 1006.2
20260506083028 13 151 6.4 9.7 0.51 1.55 1.30 99 1006.2
20260506082528 13 201 6.4 12.9 0.51 1.55 1.27 99 1006.3
20260506082029 13 199 8.0 12.9 0.53 1.55 1.27 99 1006.4
20260506081523 13 163 6.4 12.9 0.51 1.50 1.24 99 1006.4
20260506081023 13 197 6.4 14.5 0.48 1.47 1.19 98 1006.4
20260506080247 13 220 6.4 14.5 0.43 1.40 1.12 98 1006.4
20260506073524 13 206 6.4 14.5 0.33 1.12 0.86 95 1006.5
20260506073024 13 203 4.8 9.7 0.25 1.04 0.79 96 1006.5
20260506072741 13 156 3.2 6.4 0.23 1.02 0.76 96 1006.2
20260506072024 13 214 4.8 6.4 0.20 0.99 0.74 96 1006.7
20260506071522 13 240 4.8 6.4 0.18 0.99 0.71 95 1006.6
20260506071008 13 216 3.2 6.4 0.20 0.99 0.71 94 1006.4
20260506070728 13 207 3.2 6.4 0.18 0.99 0.71 96 1006.2
20260506061955 13 80 1.6 3.2 0.46 0.84 0.53 98 1006.5
20260506061455 13 136 0.0 3.2 0.48 0.84 0.53 98 1006.6
20260506060955 13 106 0.0 3.2 0.48 0.86 0.51 98 1006.7
20260506060439 13 135 0.0 3.2 0.48 0.89 0.51 97 1006.9
20260506050936 13 266 3.2 6.4 0.05 0.56 0.05 95 1008.1
20260506050435 13 261 3.2 4.8 0.05 0.56 0.05 98 1008.2
20260506044431 13 223 0.0 3.2 0.05 0.53 0.03 98 1008.1
20260506043930 13 224 0.0 3.2 0.08 0.53 0.03 97 1008.1
20260506043430 13 0 0.0 3.2 0.08 0.51 0.03 97 1008.0
20260506042930 13 0 0.0 3.2 0.10 0.51 0.03 96 1007.9
20260506042430 13 0 1.6 3.2 0.13 0.51 0.03 96 1007.9
20260506041930 13 48 1.6 3.2 0.15 0.51 0.00 94 1007.8
20260506041428 13 53 0.0 3.2 0.18 0.51 0.00 92 1007.8
20260506040927 13 0 0.0 3.2 0.18 0.51 0.00 89 1007.9
20260506040649 13 0 1.6 6.4 0.20 0.51 0.00 89 1008.0
20260506035926 13 279 3.2 6.4 0.18 0.51 0.51 89 1008.2
20260506035426 14 250 3.2 11.3 0.20 0.48 0.48 87 1008.3
20260506034926 14 0 4.8 11.3 0.18 0.48 0.48 86 1008.2
20260506034651 14 222 4.8 11.3 0.18 0.46 0.46 85 1008.4
20260506033926 15 237 4.8 11.3 0.15 0.46 0.46 83 1008.4
20260506033426 15 282 6.4 11.3 0.15 0.46 0.46 81 1008.4
20260506032927 16 218 8.0 17.7 0.15 0.43 0.43 78 1008.4
20260506032651 16 224 8.0 17.7 0.10 0.41 0.41 74 1008.4
20260506032155 16 235 9.7 17.7 0.08 0.36 0.36 72 1008.4
20260506031426 17 241 8.0 17.7 0.05 0.33 0.33 68 1008.4
20260506030926 17 256 9.7 22.5 0.03 0.33 0.33 67 1008.4
20260506030426 17 246 12.9 33.8 0.03 0.30 0.30 65 1008.4
20260506025925 18 259 14.5 33.8 0.03 0.30 0.30 63 1008.4
20260506025426 18 278 9.7 33.8 0.00 0.28 0.28 61 1008.3
20260506025148 18 265 6.4 12.9 0.00 0.28 0.28 61 1008.3
20260506024426 18 198 6.4 12.9 0.00 0.28 0.28 61 1008.2
20260506023926 18 219 4.8 11.3 0.00 0.28 0.28 61 1008.2
20260506023427 18 206 4.8 9.7 0.00 0.28 0.28 62 1008.1
20260506022927 18 202 4.8 11.3 0.00 0.28 0.28 62 1008.1
20260506022423 18 241 6.4 12.9 0.00 0.28 0.28 61 1008.0
20260506021424 19 225 4.8 9.7 0.00 0.28 0.28 61 1008.1
20260506020924 19 139 4.8 9.7 0.00 0.28 0.28 60 1008.0
20260506020424 19 139 4.8 9.7 0.00 0.28 0.28 60 1007.9
20260506015924 19 200 6.4 16.1 0.00 0.28 0.28 59 1008.0
20260506015424 19 200 8.0 16.1 0.00 0.28 0.28 58 1008.0
20260506014925 19 237 8.0 16.1 0.00 0.28 0.28 58 1008.1
20260506014645 19 204 8.0 16.1 0.00 0.28 0.28 59 1008.1
20260506014146 19 228 8.0 14.5 0.00 0.28 0.28 59 1007.9
20260506013425 19 239 6.4 14.5 0.00 0.28 0.28 59 1008.0
20260506012925 19 182 6.4 12.9 0.00 0.28 0.28 61 1008.1
20260506012422 19 239 6.4 12.9 0.00 0.28 0.28 60 1008.1
20260506011922 19 234 6.4 12.9 0.00 0.28 0.28 60 1008.0
20260506011422 19 210 4.8 9.7 0.00 0.28 0.28 60 1008.0
20260506010923 19 235 4.8 9.7 0.00 0.28 0.28 60 1007.9
20260506010422 19 194 4.8 11.3 0.00 0.28 0.28 60 1007.8
20260506005922 19 214 4.8 11.3 0.00 0.28 0.28 59 1007.8
20260506005423 19 238 3.2 6.4 0.00 0.28 0.28 60 1007.8
20260506004922 19 244 3.2 6.4 0.00 0.28 0.28 60 1007.7
20260506003922 20 222 4.8 9.7 0.00 0.28 0.28 59 1007.9
20260506003423 20 208 4.8 9.7 0.00 0.28 0.28 59 1008.0
20260506002920 20 207 4.8 9.7 0.00 0.28 0.28 59 1008.0
20260506002421 20 215 4.8 9.7 0.00 0.28 0.28 58 1008.0
20260506001921 20 209 4.8 9.7 0.00 0.28 0.28 58 1008.0
20260506001420 20 211 4.8 9.7 0.00 0.28 0.28 58 1008.0
20260506000921 20 280 6.4 12.9 0.00 0.28 0.28 58 1008.1
20260506000420 20 200 4.8 12.9 0.00 0.30 0.28 57 1008.1
20260505235920 20 205 3.2 6.4 0.00 0.30 0.28 58 1008.1
20260505235420 20 238 4.8 8.0 0.00 0.30 0.28 57 1008.1
20260505235143 20 242 4.8 11.3 0.00 0.30 0.28 57 1008.1
20260505234421 20 225 4.8 12.9 0.00 0.30 0.28 56 1008.0
20260505233918 20 220 6.4 12.9 0.00 0.30 0.28 57 1008.1
20260505233418 20 221 6.4 16.1 0.00 0.30 0.28 56 1008.2
20260505232918 20 220 8.0 16.1 0.00 0.30 0.28 56 1008.1
20260505232418 20 210 6.4 16.1 0.00 0.30 0.28 55 1008.1
20260505231918 21 197 6.4 16.1 0.00 0.30 0.28 55 1008.0